Location: Newark
(50.4348°N, 30.5552°E)
Time: 15:11:24
(UTC+00:00)

Altair - Pass Details

Date: 26 January 2020
Orbit: 1502 x 1682 km, 47.2° (Epoch: 24 February)

Event Time Altitude Azimuth Distance (km) Brightness Sun altitude
Rises 05:23:36 0° 206° (SSW) 4,854 10.1 -3.4°
Reaches altitude 10° 05:27:06 10° 197° (SSW) 3,891 9.8 -2.9°
Maximum altitude 05:35:38 33° 138° (SE) 2,534 9.6 -1.7°
Drops below altitude 10° 05:44:16 10° 80° (E) 3,949 10.5 -0.5°
Sets 05:47:50 0° 71° (ENE) 4,936 10.8 0.0°
